Location: Santa Fe
(35.6870°N, 105.9370°W)
Time: 20:06:05
(UTC-06:00)

Amateur Radio Satellites - All Passes

Search period start: 27 April 2015 19:36
Search period end: 28 April 2015 19:36
Location: Santa Fe, 35.6870°N, 105.9370°W

Satellite Date Start Highest point End Downlink Frequencies (MHz)
Time Altitude Azimuth
PHONESAT 2.4 27 Apr 19:43:42 19:47:04 36° 2° (N) 19:50:26 2401.200-2431.200
M-CUBED/EXP-1 PRIME 27 Apr 19:47:21 19:51:25 65° 289° (WNW) 19:55:06 437.505
CUBESAT XI-V 27 Apr 19:48:46 19:53:19 59° 285° (WNW) 19:57:52 437.345
SO-50 27 Apr 19:56:23 20:00:51 33° 52° (NE) 20:05:19 436.795
CUTE-I 27 Apr 19:57:18 20:00:44 17° 269° (W) 20:03:54 437.470
HO-68 27 Apr 20:00:42 20:06:50 33° 66° (ENE) 20:13:08 435.675
Cosmos 2499 27 Apr 20:01:00 20:09:03 36° 286° (WNW) 20:16:47 435.465 / 435.565
SEEDS 27 Apr 20:08:00 20:10:10 14° 68° (ENE) 20:12:31 437.485
Cubesat XI-IV 27 Apr 20:08:48 20:11:15 13° 271° (W) 20:13:20 437.490
RS-15 27 Apr 20:18:19 20:23:57 15° 15° (NNE) 20:30:01 29.354- 29.394
CANX-2 27 Apr 20:18:53 20:22:24 25° 71° (ENE) 20:26:00 2200.000
AAUSAT CUBESAT 2 27 Apr 20:19:50 20:21:41 13° 68° (ENE) 20:23:47 437.432
GOMX 1 27 Apr 20:23:00 20:26:47 35° 72° (ENE) 20:30:48 467.674
CUTE 1.7 + AOD 2 27 Apr 20:27:29 20:31:09 29° 72° (ENE) 20:34:54 437.475
AUBIESAT-1 27 Apr 20:28:11 20:31:27 24° 295° (WNW) 20:34:27 437.475
VERMONT LUNAR 27 Apr 20:30:26 20:33:49 79° 20° (NNE) 20:37:12 437.305
BRITE-PL 27 Apr 20:47:09 20:51:16 70° 259° (W) 20:55:33 437.365/2234.400
DOVE 4 27 Apr 20:48:00 20:52:01 44° 74° (ENE) 20:56:17 437.250
STRAND 1 27 Apr 20:50:50 20:55:27 35° 289° (WNW) 21:00:01 437.568
YUBILEINY 27 Apr 20:52:33 20:58:35 21° 66° (ENE) 21:05:00 435.215
PRISM 27 Apr 21:00:09 21:02:31 15° 292° (WNW) 21:04:44 437.425
CUBEBUG 2 27 Apr 21:00:10 21:02:41 16° 68° (ENE) 21:05:26 437.445
COMPASS 1 27 Apr 21:12:08 21:16:19 65° 76° (ENE) 21:20:32 437.405
DELFI C3 27 Apr 21:14:21 21:17:06 18° 70° (ENE) 21:19:58 145.870
CINEMA 3 27 Apr 21:14:55 21:19:01 44° 74° (ENE) 21:23:21 145.822/145.860
O/OREOS (USA 219) 27 Apr 21:18:20 21:21:43 21° 102° (ESE) 21:25:14 437.305
UWE-3 27 Apr 21:20:32 21:23:46 21° 69° (ENE) 21:27:12 435.000/436.395/437.385
PHONESAT 2.4 27 Apr 21:22:01 21:25:36 70° 18° (NNE) 21:29:10 2401.200-2431.200
FUNcube-1 27 Apr 21:24:10 21:27:02 18° 69° (ENE) 21:30:06 145.935
UKube-1 27 Apr 21:27:40 21:28:45 11° 66° (ENE) 21:30:05 .
SO-50 27 Apr 21:37:09 21:41:18 27° 248° (WSW) 21:45:19 436.795
SEEDS 27 Apr 21:41:34 21:45:38 43° 262° (W) 21:49:44 437.485
Oscar 11 27 Apr 21:42:52 21:47:07 57° 75° (ENE) 21:51:25 145.826/435.025
HO-68 27 Apr 21:47:36 21:54:24 43° 261° (W) 22:01:10 435.675
ZACube-1 27 Apr 21:49:21 21:53:17 35° 72° (ENE) 21:57:22 437.345
AAUSAT CUBESAT 2 27 Apr 21:52:54 21:56:58 46° 261° (W) 22:01:02 437.432
CANX-2 27 Apr 21:54:49 21:58:18 23° 266° (W) 22:01:41 2200.000
GOMX 1 27 Apr 22:02:33 22:05:11 16° 269° (W) 22:07:42 467.674
VELOX 1 27 Apr 22:03:28 22:05:34 14° 67° (ENE) 22:07:53 145.980
CUTE 1.7 + AOD 2 27 Apr 22:03:51 22:07:06 20° 267° (W) 22:10:16 437.475
VERMONT LUNAR 27 Apr 22:08:30 22:11:02 20° 214° (SW) 22:13:32 437.305
DX 1 27 Apr 22:20:39 22:24:49 49° 74° (ENE) 22:29:01 434.975-435.025
AISAT 27 Apr 22:20:57 22:24:18 22° 70° (ENE) 22:27:47 437.250
DOVE 4 27 Apr 22:28:08 22:30:12 13° 271° (W) 22:32:03 437.250
RS-15 27 Apr 22:30:22 22:40:57 41° 46° (NE) 22:52:09 29.354- 29.394
Cosmos 2491 27 Apr 22:33:57 22:42:18 55° 91° (E) 22:50:48 435.465 / 435.565
CUBEBUG 2 27 Apr 22:34:53 22:39:02 42° 262° (W) 22:43:19 437.445
ANTELSAT 27 Apr 22:41:24 22:44:27 18° 92° (E) 22:47:39 437.575/2403.000
YUBILEINY 27 Apr 22:47:41 22:56:24 73° 266° (W) 23:05:00 435.215
DELFI C3 27 Apr 22:48:26 22:52:03 29° 264° (W) 22:55:38 145.870
CINEMA 3 27 Apr 22:54:14 22:56:35 14° 271° (W) 22:58:45 145.822/145.860
UWE-3 27 Apr 22:56:17 23:00:09 30° 265° (W) 23:04:04 435.000/436.395/437.385
O/OREOS (USA 219) 27 Apr 22:56:54 23:01:00 31° 297° (WNW) 23:05:02 437.305
FUNcube-1 27 Apr 22:59:07 23:03:07 35° 263° (W) 23:07:11 145.935
UKube-1 27 Apr 23:00:12 23:04:27 58° 260° (W) 23:08:42 .
HUMSAT D 27 Apr 23:00:34 23:04:46 72° 259° (W) 23:09:03 437.325/437.525
PHONESAT 2.4 27 Apr 23:00:39 23:03:39 25° 213° (SSW) 23:06:36 2401.200-2431.200
NANOSAT C BR1 27 Apr 23:03:23 23:05:09 13° 91° (E) 23:07:10 145.865
POPSAT HIP 1 27 Apr 23:07:18 23:09:33 14° 91° (E) 23:12:01 437.405
ESTCUBE 1 27 Apr 23:07:28 23:11:38 39° 73° (ENE) 23:15:50 437.505/2401.250
BUGSAT 1 27 Apr 23:19:12 23:21:01 13° 91° (E) 23:23:04 437.445
Oscar 11 27 Apr 23:22:53 23:23:44 10° 271° (W) 23:24:17 145.826/435.025
50 SAT 27 Apr 23:23:39 23:27:36 60° 259° (W) 23:31:36 437.505
ZACube-1 27 Apr 23:26:49 23:29:49 17° 268° (W) 23:32:42 437.345
TIGRISAT 27 Apr 23:29:12 23:33:51 60° 100° (E) 23:38:25 435.000
UNISAT 6 27 Apr 23:34:37 23:39:19 71° 100° (E) 23:43:55 437.425
DUCHIFAT 1 27 Apr 23:34:55 23:38:40 30° 96° (E) 23:42:28 145.980
CUBEBUG 1 27 Apr 23:35:34 23:39:51 72° 76° (ENE) 23:44:10 437.445
POLYITAN 1 27 Apr 23:36:53 23:40:47 33° 97° (E) 23:44:43 437.675
VELOX 1 27 Apr 23:37:32 23:41:46 47° 261° (W) 23:46:02 145.980
Cosmos 2504 27 Apr 23:50:19 23:56:30 26° 69° (ENE) 00:02:36 435.465 / 435.565
QB50P1 27 Apr 23:53:43 23:57:56 52° 100° (E) 00:02:08 145.935-145.965
AISAT 27 Apr 23:57:00 00:00:47 27° 264° (W) 00:04:32 437.250
AIST 1 27 Apr 23:58:08 00:01:14 20° 90° (E) 00:04:25
DX 1 27 Apr 23:59:41 00:01:25 12° 269° (W) 00:02:54 434.975-435.025
TISAT 1 28 Apr 00:06:56 00:10:34 30° 72° (ENE) 00:14:16 437.305
ANTELSAT 28 Apr 00:17:03 00:21:26 39° 287° (WNW) 00:25:42 437.575/2403.000
QB50P2 28 Apr 00:20:40 00:24:59 70° 284° (WNW) 00:29:15 145.880/145.840
JUGNU 28 Apr 00:26:39 00:29:27 14° 170° (S) 00:32:19 437.505
Cosmos 2491 28 Apr 00:32:16 00:39:40 29° 290° (WNW) 00:46:52 435.465 / 435.565
NANOSAT C BR1 28 Apr 00:37:11 00:41:18 45° 286° (WNW) 00:45:23 145.865
POPSAT HIP 1 28 Apr 00:41:36 00:45:40 40° 287° (WNW) 00:49:41 437.405
RS-15 28 Apr 00:42:36 00:54:00 60° 247° (WSW) 01:05:44 29.354- 29.394
ESTCUBE 1 28 Apr 00:45:45 00:48:42 16° 268° (W) 00:51:27 437.505/2401.250
SPROUT 28 Apr 00:46:26 00:50:41 68° 259° (W) 00:54:57 437.525
YUBILEINY 28 Apr 00:50:13 00:51:56 10° 282° (WNW) 00:52:46 435.215
BUGSAT 1 28 Apr 00:52:47 00:56:45 43° 286° (WNW) 01:00:44 437.445
TIGRISAT 28 Apr 01:08:00 01:10:07 13° 294° (WNW) 01:12:00 435.000
DUCHIFAT 1 28 Apr 01:11:09 01:14:19 20° 290° (WNW) 01:17:22 145.980
POLYITAN 1 28 Apr 01:13:28 01:16:30 18° 291° (WNW) 01:19:23 437.675
UNISAT 6 28 Apr 01:14:22 01:15:32 11° 295° (WNW) 01:16:24 437.425
ITUPSAT 1 28 Apr 01:23:17 01:27:34 34° 71° (ENE) 01:31:54 437.325
QB50P1 28 Apr 01:31:38 01:33:24 12° 293° (WNW) 01:34:55 145.935-145.965
AIST 1 28 Apr 01:35:05 01:38:45 26° 284° (WNW) 01:42:21
Cosmos 2504 28 Apr 01:42:50 01:50:25 52° 269° (W) 01:57:28 435.465 / 435.565
TISAT 1 28 Apr 01:43:27 01:46:26 18° 267° (W) 01:49:17 437.305
BEESAT 28 Apr 01:51:54 01:56:39 72° 75° (ENE) 02:01:26 436.000
SWISSCUBE 28 Apr 01:54:50 01:59:38 84° 74° (ENE) 02:04:25 437.505
AIST 2 28 Apr 02:02:37 02:04:08 12° 109° (ESE) 02:05:55 435.215
JUGNU 28 Apr 02:14:02 02:17:45 17° 180° (S) 02:21:27 437.505
BEESAT 3 28 Apr 02:16:38 02:20:42 79° 119° (ESE) 02:24:49 437.485
BEESAT 2 28 Apr 02:21:24 02:25:28 73° 118° (ESE) 02:29:37 435.950
SRMSAT 28 Apr 02:29:06 02:32:13 15° 172° (S) 02:35:22 437.500
Gurwin Techsat 1B 28 Apr 02:31:57 02:35:30 19° 92° (E) 02:39:16 435.225
DANDE 28 Apr 02:39:29 02:41:45 12° 62° (ENE) 02:44:47 436.750
KKS-1 28 Apr 02:42:24 02:46:33 41° 73° (ENE) 02:50:45 437.445
Oscar 19 28 Apr 02:44:44 02:49:57 80° 284° (WNW) 02:55:08 437.125/150
ITUPSAT 1 28 Apr 03:01:51 03:05:33 21° 266° (W) 03:09:07 437.325
GONETS M04 28 Apr 03:10:51 03:18:51 38° 73° (ENE) 03:26:56
CUSAT 1 28 Apr 03:22:29 03:29:23 33° 72° (ENE) 03:36:45 437.405
ITAMSAT 1 28 Apr 03:25:11 03:30:22 74° 102° (ESE) 03:35:33 435.822/435.867
STARS 28 Apr 03:30:19 03:34:42 88° 259° (WSW) 03:39:08 437.465
AIST 2 28 Apr 03:38:10 03:42:19 53° 302° (WNW) 03:46:32 435.215
JAS-2 28 Apr 03:39:49 03:40:51 11° 84° (E) 03:42:20 435.910
BEESAT 3 28 Apr 03:58:37 03:59:19 10° 316° (NW) 03:59:49 437.485
BEESAT 2 28 Apr 04:02:47 04:04:08 11° 316° (NW) 04:05:18 435.950
JUGNU 28 Apr 04:03:13 04:06:02 13° 190° (S) 04:08:47 437.505
Gurwin Techsat 1B 28 Apr 04:10:41 04:15:46 46° 288° (WNW) 04:20:48 435.225
SRMSAT 28 Apr 04:17:01 04:20:39 17° 182° (S) 04:24:16 437.500
DANDE 28 Apr 04:18:33 04:26:23 65° 79° (E) 04:34:55 436.750
KKS-1 28 Apr 04:20:46 04:23:26 15° 268° (W) 04:25:53 437.445
AO-7 28 Apr 04:54:31 05:02:42 58° 102° (ESE) 05:10:54 29.400- 29.500
HORYU 2 28 Apr 04:58:07 05:02:37 68° 285° (WNW) 05:07:03 437.375
M-CUBED/EXP-1 PRIME 28 Apr 05:01:02 05:02:07 11° 60° (ENE) 05:03:29 437.505
MOZHAYETS 4 28 Apr 05:04:39 05:09:17 85° 254° (WSW) 05:13:58
CUSAT 1 28 Apr 05:04:39 05:12:22 53° 267° (W) 05:20:18 437.405
ITAMSAT 1 28 Apr 05:07:10 05:09:20 12° 296° (WNW) 05:11:12 435.822/435.867
GONETS M04 28 Apr 05:07:36 05:15:46 42° 271° (W) 05:23:46
JAS-2 28 Apr 05:20:56 05:27:05 79° 285° (WNW) 05:32:32 435.910
AUBIESAT-1 28 Apr 05:37:56 05:41:39 24° 65° (ENE) 05:45:28 437.475
Cosmos 2499 28 Apr 05:55:41 06:03:20 73° 81° (E) 06:10:28 435.465 / 435.565
DANDE 28 Apr 06:02:50 06:09:19 26° 271° (W) 06:15:52 436.750
SRMSAT 28 Apr 06:06:51 06:09:05 12° 192° (SSW) 06:11:13 437.500
PRISM 28 Apr 06:11:37 06:14:37 20° 70° (ENE) 06:17:41 437.425
STRAND 1 28 Apr 06:25:24 06:29:30 26° 69° (ENE) 06:33:43 437.568
M-CUBED/EXP-1 PRIME 28 Apr 06:31:33 06:36:22 84° 255° (WSW) 06:41:14 437.505
CUTE-I 28 Apr 06:35:41 06:40:03 26° 95° (E) 06:44:32 437.470
Cubesat XI-IV 28 Apr 06:45:54 06:50:39 33° 97° (E) 06:55:28 437.490
AO-7 28 Apr 06:48:08 06:55:05 30° 299° (WNW) 07:01:50 29.400- 29.500
CUBESAT XI-V 28 Apr 06:48:58 06:53:36 87° 258° (WSW) 06:58:15 437.345
AUBIESAT-1 28 Apr 07:11:50 07:16:13 35° 258° (WSW) 07:20:36 437.475
O/OREOS (USA 219) 28 Apr 07:30:33 07:34:15 25° 61° (ENE) 07:38:00 437.305
PRISM 28 Apr 07:46:18 07:49:55 28° 263° (W) 07:53:29 437.425
Cosmos 2499 28 Apr 07:51:08 07:55:36 16° 278° (W) 07:59:29 435.465 / 435.565
PCSat 28 Apr 07:52:02 07:57:24 71° 114° (ESE) 08:02:49 145.827
STRAND 1 28 Apr 08:04:01 08:08:36 32° 263° (W) 08:13:07 437.568
CUTE-I 28 Apr 08:15:25 08:20:11 33° 290° (WNW) 08:24:53 437.470
Cubesat XI-IV 28 Apr 08:26:12 08:30:39 27° 291° (WNW) 08:34:59 437.490
GOMX 1 28 Apr 08:27:41 08:31:01 17° 91° (E) 08:34:39 467.674
Cosmos 2491 28 Apr 08:48:49 08:55:18 23° 67° (ENE) 09:02:08 435.465 / 435.565
DOVE 4 28 Apr 08:50:09 08:53:44 19° 92° (E) 08:57:33 437.250
BRITE-PL 28 Apr 08:53:29 08:58:35 48° 99° (E) 09:03:59 437.365/2234.400
COMPASS 1 28 Apr 09:00:31 09:02:19 13° 90° (E) 09:04:21 437.405
O/OREOS (USA 219) 28 Apr 09:09:55 09:13:37 25° 257° (WSW) 09:17:11 437.305
CINEMA 3 28 Apr 09:13:42 09:16:36 16° 90° (E) 09:19:44 145.822/145.860
HO-68 28 Apr 09:18:10 09:24:55 44° 99° (E) 09:31:42 435.675
SEEDS 28 Apr 09:28:55 09:32:50 36° 97° (E) 09:36:45 437.485
Oscar 11 28 Apr 09:35:03 09:36:54 13° 90° (E) 09:39:00 145.826/435.025
PCSat 28 Apr 09:38:01 09:41:26 16° 313° (NW) 09:44:40 145.827
AAUSAT CUBESAT 2 28 Apr 09:39:02 09:42:47 32° 96° (E) 09:46:33 437.432
ANTELSAT 28 Apr 09:39:14 09:40:46 12° 66° (ENE) 09:42:34 437.575/2403.000
CANX-2 28 Apr 09:42:05 09:46:22 76° 101° (E) 09:50:36 2200.000
YUBILEINY 28 Apr 09:50:01 09:56:48 27° 85° (E) 10:03:55 435.215
CUTE 1.7 + AOD 2 28 Apr 09:50:45 09:55:03 86° 102° (ESE) 09:59:18 437.475
GOMX 1 28 Apr 10:04:17 10:09:24 53° 285° (WNW) 10:14:41 467.674
SO-50 28 Apr 10:09:08 10:12:19 19° 110° (ESE) 10:15:45 436.795
ISS 28 Apr 10:13:29 10:16:13 26° 132° (SE) 10:19:00 145.825
DX 1 28 Apr 10:14:39 10:15:26 11° 90° (E) 10:16:32 434.975-435.025
TIGRISAT 28 Apr 10:25:06 10:29:13 36° 72° (ENE) 10:33:29 435.000
DUCHIFAT 1 28 Apr 10:25:42 10:28:12 16° 69° (ENE) 10:30:53 145.980
DOVE 4 28 Apr 10:26:43 10:31:41 46° 286° (WNW) 10:36:44 437.250
POLYITAN 1 28 Apr 10:28:05 10:30:53 18° 69° (ENE) 10:33:52 437.675
CUBEBUG 2 28 Apr 10:28:35 10:33:15 50° 99° (E) 10:37:51 437.445
DELFI C3 28 Apr 10:30:24 10:34:15 43° 99° (E) 10:38:04 145.870
UNISAT 6 28 Apr 10:30:35 10:34:53 43° 73° (ENE) 10:39:18 437.425
BRITE-PL 28 Apr 10:33:01 10:36:50 20° 291° (WNW) 10:40:36 437.365/2234.400
COMPASS 1 28 Apr 10:34:18 10:38:17 42° 286° (WNW) 10:42:12 437.405
BEESAT 3 28 Apr 10:38:53 10:41:55 20° 50° (NE) 10:45:00 437.485
QB50P1 28 Apr 10:44:05 10:47:35 27° 71° (ENE) 10:51:12 145.935-145.965
BEESAT 2 28 Apr 10:44:13 10:47:10 19° 50° (NE) 10:50:12 435.950
Cosmos 2491 28 Apr 10:44:15 10:53:02 68° 267° (W) 11:01:44 435.465 / 435.565
HUMSAT D 28 Apr 10:48:19 10:51:44 23° 94° (E) 10:55:11 437.325/437.525
UWE-3 28 Apr 10:48:24 10:53:06 68° 101° (E) 10:57:43 435.000/436.395/437.385
CINEMA 3 28 Apr 10:49:14 10:54:07 51° 286° (WNW) 10:58:58 145.822/145.860
FUNcube-1 28 Apr 10:50:03 10:54:34 54° 100° (E) 10:59:00 145.935
UKube-1 28 Apr 10:50:59 10:54:42 28° 96° (E) 10:58:27 .
50 SAT 28 Apr 11:04:29 11:07:23 20° 94° (E) 11:10:23 437.505
SEEDS 28 Apr 11:05:44 11:08:22 16° 291° (WNW) 11:10:51 437.485
HO-68 28 Apr 11:06:13 11:12:29 32° 295° (WNW) 11:18:35 435.675
Oscar 11 28 Apr 11:09:14 11:13:24 45° 286° (WNW) 11:17:30 145.826/435.025
QB50P2 28 Apr 11:10:35 11:14:43 58° 75° (ENE) 11:18:53 145.880/145.840
ANTELSAT 28 Apr 11:12:33 11:17:02 62° 260° (W) 11:21:40 437.575/2403.000
AAUSAT CUBESAT 2 28 Apr 11:15:23 11:18:12 17° 290° (WNW) 11:20:51 437.432
ZACube-1 28 Apr 11:16:38 11:21:15 73° 283° (WNW) 11:25:47 437.345
NANOSAT C BR1 28 Apr 11:26:29 11:30:41 88° 79° (E) 11:34:56 145.865
CUBEBUG 1 28 Apr 11:28:30 11:31:13 17° 92° (E) 11:34:08 437.445
VELOX 1 28 Apr 11:30:54 11:35:03 39° 98° (E) 11:39:14 145.980
POPSAT HIP 1 28 Apr 11:31:05 11:35:18 81° 258° (WSW) 11:39:33 437.405
BUGSAT 1 28 Apr 11:39:43 11:43:44 87° 82° (E) 11:47:47 437.445
AIST 1 28 Apr 11:44:25 11:48:35 52° 80° (E) 11:52:46
YUBILEINY 28 Apr 11:44:28 11:53:09 58° 281° (WNW) 12:01:48 435.215
DX 1 28 Apr 11:47:49 11:52:06 56° 286° (WNW) 11:56:23 434.975-435.025
SO-50 28 Apr 11:48:12 11:52:35 40° 306° (NW) 11:57:06 436.795
ISS 28 Apr 11:49:44 11:52:32 26° 327° (NNW) 11:55:20 145.825
AISAT 28 Apr 11:49:47 11:54:15 68° 101° (E) 11:58:42 437.250
DUCHIFAT 1 28 Apr 11:59:53 12:03:45 36° 262° (W) 12:07:39 145.980
AIST 2 28 Apr 12:02:44 12:06:42 39° 56° (NE) 12:10:38 435.215
POLYITAN 1 28 Apr 12:02:48 12:06:36 32° 263° (W) 12:10:25 437.675
TIGRISAT 28 Apr 12:02:56 12:06:08 18° 268° (W) 12:09:13 435.000
CUBEBUG 2 28 Apr 12:06:42 12:09:32 15° 293° (WNW) 12:12:10 437.445
DELFI C3 28 Apr 12:07:13 12:09:02 12° 292° (WNW) 12:10:39 145.870
UNISAT 6 28 Apr 12:09:10 12:11:57 15° 269° (W) 12:14:33 437.425
BEESAT 3 28 Apr 12:16:21 12:20:00 31° 246° (WSW) 12:23:33 437.485
QB50P1 28 Apr 12:20:14 12:23:28 21° 266° (W) 12:26:37 145.935-145.965
BEESAT 2 28 Apr 12:21:39 12:25:24 34° 246° (WSW) 12:29:03 435.950
Oscar 19 28 Apr 12:23:08 12:24:55 12° 64° (ENE) 12:27:00 437.125/150
HUMSAT D 28 Apr 12:23:49 12:27:27 26° 289° (WNW) 12:30:58 437.325/437.525
Cosmos 2504 28 Apr 12:24:17 12:30:59 26° 85° (E) 12:37:59 435.465 / 435.565
UKube-1 28 Apr 12:27:20 12:30:42 22° 290° (WNW) 12:33:58 .
UWE-3 28 Apr 12:27:34 12:29:05 11° 294° (WNW) 12:30:19 435.000/436.395/437.385
FUNcube-1 28 Apr 12:28:10 12:30:27 13° 293° (WNW) 12:32:30 145.935
SPROUT 28 Apr 12:36:30 12:40:05 25° 95° (E) 12:43:44 437.525
50 SAT 28 Apr 12:38:49 12:42:12 26° 288° (WNW) 12:45:29 437.505
ESTCUBE 1 28 Apr 12:39:27 12:43:54 62° 285° (WNW) 12:48:18 437.505/2401.250
RS-15 28 Apr 12:52:33 13:01:04 29° 106° (ESE) 13:10:05 29.354- 29.394
CUBEBUG 1 28 Apr 13:03:43 13:07:45 36° 287° (WNW) 13:11:45 437.445
VELOX 1 28 Apr 13:08:25 13:11:20 17° 292° (WNW) 13:14:07 145.980
TISAT 1 28 Apr 13:29:19 13:33:36 86° 101° (E) 13:37:52 437.305
ITUPSAT 1 28 Apr 13:29:34 13:30:20 10° 89° (E) 13:31:27 437.325
AISAT 28 Apr 13:29:47 13:30:21 10° 295° (WNW) 13:30:38 437.250
AIST 2 28 Apr 13:42:22 13:44:59 16° 250° (WSW) 13:47:25 435.215
Gurwin Techsat 1B 28 Apr 13:50:13 13:54:15 23° 68° (ENE) 13:58:26 435.225
BEESAT 28 Apr 13:55:52 13:59:33 23° 94° (E) 14:03:21 436.000
Oscar 19 28 Apr 13:58:34 14:03:42 75° 258° (WSW) 14:08:54 437.125/150
SWISSCUBE 28 Apr 13:58:42 14:02:40 27° 95° (E) 14:06:43 437.505
AO-7 28 Apr 14:04:51 14:06:48 11° 51° (NE) 14:09:22 29.400- 29.500
SPROUT 28 Apr 14:12:36 14:16:06 23° 289° (WNW) 14:19:28 437.525
Cosmos 2504 28 Apr 14:15:06 14:23:54 62° 281° (W) 14:32:33 435.465 / 435.565
ITAMSAT 1 28 Apr 14:40:13 14:45:24 83° 77° (ENE) 14:50:36 435.822/435.867
VERMONT LUNAR 28 Apr 14:45:53 14:48:50 29° 148° (SSE) 14:51:49 437.305
RS-15 28 Apr 15:01:50 15:12:40 68° 304° (NW) 15:23:43 29.354- 29.394
ITUPSAT 1 28 Apr 15:04:02 15:08:46 65° 285° (WNW) 15:13:28 437.325
STARS 28 Apr 15:23:48 15:27:08 21° 94° (E) 15:30:36 437.465
JAS-2 28 Apr 15:27:36 15:34:37 39° 69° (ENE) 15:41:30 435.910
Gurwin Techsat 1B 28 Apr 15:29:04 15:34:02 39° 262° (W) 15:38:58 435.225
BEESAT 28 Apr 15:33:14 15:37:27 31° 289° (WNW) 15:41:35 436.000
SWISSCUBE 28 Apr 15:36:29 15:40:29 27° 290° (WNW) 15:44:24 437.505
PHONESAT 2.4 28 Apr 15:46:17 15:49:26 30° 148° (SSE) 15:52:37 2401.200-2431.200
AO-7 28 Apr 15:50:06 15:58:10 61° 69° (ENE) 16:06:18 29.400- 29.500
HORYU 2 28 Apr 15:53:12 15:57:41 77° 76° (ENE) 16:02:12 437.375
GONETS M04 28 Apr 16:07:51 16:16:02 48° 90° (E) 16:24:24
KKS-1 28 Apr 16:12:36 16:17:02 62° 285° (WNW) 16:21:28 437.445
VERMONT LUNAR 28 Apr 16:22:50 16:26:10 59° 344° (NNW) 16:29:31 437.305
CUSAT 1 28 Apr 16:29:25 16:32:11 20° 85° (E) 16:35:39 437.405
PCSat 28 Apr 16:43:13 16:47:58 31° 54° (NE) 16:52:45 145.827
ISS 28 Apr 16:43:35 16:45:18 14° 26° (NNE) 16:47:04 145.825
STARS 28 Apr 16:59:44 17:03:38 29° 289° (WNW) 17:07:27 437.465
MOZHAYETS 4 28 Apr 17:03:17 17:07:11 28° 95° (E) 17:11:07
JAS-2 28 Apr 17:12:08 17:19:32 42° 264° (W) 17:26:38 435.910
RS-15 28 Apr 17:20:01 17:27:51 21° 332° (NNW) 17:35:28 29.354- 29.394
PHONESAT 2.4 28 Apr 17:23:59 17:27:32 62° 343° (NNW) 17:31:06 2401.200-2431.200
DANDE 28 Apr 17:29:34 17:32:55 78° 97° (E) 17:37:26 436.750
AO-7 28 Apr 17:44:45 17:51:30 26° 266° (W) 17:57:58 29.400- 29.500
CUTE-I 28 Apr 17:54:43 17:59:23 33° 70° (ENE) 18:04:08 437.470
VERMONT LUNAR 28 Apr 18:00:49 18:03:57 34° 360° (N) 18:07:05 437.305
Cubesat XI-IV 28 Apr 18:05:03 18:10:00 42° 72° (ENE) 18:15:01 437.490
GONETS M04 28 Apr 18:05:22 18:13:10 33° 288° (WNW) 18:20:49
CUSAT 1 28 Apr 18:11:35 18:14:46 23° 293° (WNW) 18:18:34 437.405
ISS 28 Apr 18:18:47 18:22:02 81° 223° (SW) 18:25:17 145.825
Cosmos 2499 28 Apr 18:26:22 18:35:07 67° 93° (E) 18:43:40 435.465 / 435.565
PCSat 28 Apr 18:26:34 18:31:22 32° 251° (WSW) 18:36:05 145.827
MOZHAYETS 4 28 Apr 18:40:37 18:44:19 24° 290° (WNW) 18:47:54
SO-50 28 Apr 18:44:01 18:45:36 12° 41° (NE) 18:47:24 436.795
CUBESAT XI-V 28 Apr 18:49:01 18:52:59 29° 95° (E) 18:57:02 437.345
AUBIESAT-1 28 Apr 18:57:00 18:59:55 21° 98° (E) 19:02:46 437.475
PHONESAT 2.4 28 Apr 19:02:46 19:06:06 36° 360° (N) 19:09:28 2401.200-2431.200
